• Currently

    Reported at Minneapolis, Minneapolis-St. Paul International Airport, MN
    3:53 AM CST SUN MAR 26 2017
  • 37°F3°C
  • Drizzle
    Drizzle
  • Feels Like:33°F0°CDew Point:34°F1°CHumidity:87% Winds:E 7 mph 11 kph
    Pressure:29.94 in1014 hPaVisibility:7.00 miles11263.00 meters
Time Weather Temp Dew Point
Humidity Winds Visibility Pressure Precipitation
1 hr 24 hr
Friday, March 24
23:53 23:53 Cloudy With Light Rain Cloudy With Light Rain 38°F3°C 36°F2°C 93% ENE 7 mphENE 11 kph 4.0 miles6.4 km 29.85 in1011 hPa 0.06 in38.71 mm --
23:12 23:12 Cloudy With Light Rain Cloudy With Light Rain 37°F3°C 36°F2°C 93% ENE 5 mphENE 7 kph 3.0 miles4.8 km 29.85 in1011 hPa 0.00 in0.00 mm --
22:53 22:53 Cloudy With Light Rain Cloudy With Light Rain 39°F4°C 36°F2°C 89% E 7 mphE 11 kph 3.0 miles4.8 km 29.85 in1011 hPa 0.05 in32.26 mm --
22:41 22:41 Cloudy With Light Rain Cloudy With Light Rain 38°F3°C 35°F2°C 89% E 7 mphE 11 kph 3.0 miles4.8 km 29.85 in1011 hPa 0.03 in19.35 mm --
22:18 22:18 Cloudy With Light Rain Cloudy With Light Rain 39°F4°C 35°F2°C 86% ENE 7 mphENE 11 kph 3.0 miles4.8 km 29.85 in1011 hPa 0.02 in12.90 mm --
21:53 21:53 Cloudy With Rain Cloudy With Rain 39°F4°C 35°F2°C 86% ESE 8 mphESE 13 kph 4.0 miles6.4 km 29.83 in1010 hPa 0.01 in6.45 mm --
20:53 20:53 Cloudy Cloudy 39°F4°C 34°F1°C 82% SE 12 mphSE 19 kph 10.0 miles16.1 km 29.83 in1010 hPa 0.00 in0.03 mm --
19:53 19:53 Cloudy With Light Drizzle Cloudy With Light Drizzle 39°F4°C 34°F1°C 82% SE 9 mphSE 15 kph 5.0 miles8.0 km 29.85 in1011 hPa 0.00 in0.03 mm --
18:53 18:53 Cloudy Cloudy 39°F4°C 33°F1°C 79% SSE 12 mphSSE 19 kph 10.0 miles16.1 km 29.83 in1010 hPa 0.02 in12.90 mm --
18:01 18:01 Cloudy With Light Rain Cloudy With Light Rain 38°F3°C 33°F1°C 83% SSE 12 mphSSE 19 kph 8.0 miles12.9 km 29.83 in1010 hPa 0.02 in12.90 mm --
17:53 17:53 Cloudy With Light Rain Cloudy With Light Rain 39°F4°C 33°F1°C 79% ESE 17 mphESE 28 kph 4.0 miles6.4 km 29.8 in1009 hPa 0.00 in0.03 mm --
17:46 17:46 Cloudy With Light Rain Cloudy With Light Rain 38°F3°C 33°F1°C 83% ESE 16 mphESE 26 kph 5.0 miles8.0 km 29.83 in1010 hPa 0.00 in0.03 mm --
16:53 16:53 Cloudy With Light Drizzle Cloudy With Light Drizzle 38°F3°C 31°F-1°C 76% SSE 17 mphSSE 28 kph 6.0 miles9.7 km 29.88 in1012 hPa 0.00 in0.03 mm --
15:53 15:53 Cloudy Cloudy 39°F4°C 28°F-2°C 65% SE 10 mphSE 17 kph 10.0 miles16.1 km 29.91 in1013 hPa 0.00 in0.00 mm --
14:53 14:53 Cloudy Cloudy 39°F4°C 28°F-2°C 65% SSE 15 mphSSE 24 kph 10.0 miles16.1 km 29.94 in1014 hPa 0.00 in0.03 mm --
14:31 14:31 Cloudy With Light Rain Cloudy With Light Rain 39°F4°C 28°F-2°C 65% SSE 20 mphSSE 31 kph 10.0 miles16.1 km 29.97 in1015 hPa 0.00 in0.03 mm --
13:53 13:53 Cloudy Cloudy 39°F4°C 27°F-3°C 62% SSE 16 mphSSE 26 kph 10.0 miles16.1 km 29.97 in1015 hPa 0.00 in0.00 mm --
13:27 13:27 Cloudy Cloudy 39°F4°C 26°F-3°C 60% SSE 16 mphSSE 26 kph 10.0 miles16.1 km 30 in1016 hPa 0.00 in0.00 mm --
12:53 12:53 Cloudy Cloudy 39°F4°C 24°F-4°C 55% SSE 18 mphSSE 30 kph 10.0 miles16.1 km 30.03 in1017 hPa 0.00 in0.00 mm --
11:53 11:53 Cloudy Cloudy 39°F4°C 23°F-5°C 53% SSE 20 mphSSE 31 kph 10.0 miles16.1 km 30.03 in1017 hPa 0.00 in0.00 mm --
10:53 10:53 Cloudy Cloudy 39°F4°C 22°F-6°C 50% SSE 20 mphSSE 31 kph 10.0 miles16.1 km 30.06 in1018 hPa 0.00 in0.00 mm --
09:53 09:53 Cloudy Cloudy 38°F3°C 21°F-6°C 51% S 18 mphS 30 kph 10.0 miles16.1 km 30.09 in1019 hPa 0.00 in0.00 mm --
08:53 08:53 Cloudy Cloudy 38°F3°C 22°F-6°C 52% SE 12 mphSE 19 kph 10.0 miles16.1 km 30.12 in1020 hPa 0.00 in0.00 mm --
07:53 07:53 Cloudy Cloudy 37°F3°C 20°F-7°C 50% SSE 13 mphSSE 20 kph 10.0 miles16.1 km 30.12 in1020 hPa 0.00 in0.00 mm --
06:53 06:53 Cloudy Cloudy 37°F3°C 22°F-6°C 54% SSE 15 mphSSE 24 kph 10.0 miles16.1 km 30.15 in1021 hPa 0.00 in0.00 mm --
05:53 05:53 Cloudy Cloudy 37°F3°C 22°F-6°C 54% SSE 15 mphSSE 24 kph 10.0 miles16.1 km 30.18 in1022 hPa 0.00 in0.00 mm --
04:53 04:53 Cloudy Cloudy 37°F3°C 21°F-6°C 52% SSE 15 mphSSE 24 kph 10.0 miles16.1 km 30.18 in1022 hPa 0.00 in0.00 mm --
03:53 03:53 Cloudy Cloudy 37°F3°C 20°F-7°C 50% SSE 18 mphSSE 30 kph 10.0 miles16.1 km 30.21 in1023 hPa 0.00 in0.00 mm --
02:53 02:53 Cloudy Cloudy 37°F3°C 18°F-8°C 46% SSE 12 mphSSE 19 kph 10.0 miles16.1 km 30.24 in1024 hPa 0.00 in0.00 mm --
01:53 01:53 Cloudy Cloudy 36°F2°C 18°F-8°C 48% SE 9 mphSE 15 kph 10.0 miles16.1 km 30.24 in1024 hPa 0.00 in0.03 mm --
00:53 00:53 Cloudy Cloudy 36°F2°C 16°F-9°C 44% SE 12 mphSE 19 kph 10.0 miles16.1 km 30.27 in1025 hPa 0.00 in0.00 mm --